Weather History for Drummond Island, MI

Change the Weather History Date:

Sunday, December 30, 2012

  Actual Average (KCIU) Record (KCIU)
Temperature  
Mean Temperature 18 °F -  
Max Temperature 29 °F 24 °F 41 °F (1979)
Min Temperature 6 °F 5 °F -16 °F (1989)
Degree Days  
Heating Degree Days 48    
Moisture  
Dew Point 16 °F    
Average Humidity 85    
Maximum Humidity 96    
Minimum Humidity 71    
Precipitation  
Precipitation 0.00 in - - ()
Sea Level Pressure  
Sea Level Pressure 30.06 in    
Wind  
Wind Speed 2 mph (SW)    
Max Wind Speed 14 mph    
Max Gust Speed 21 mph    
Visibility 9 miles    
Events Snow    
Averages and records for this station are not official NWS values.
T = Trace of Precipitation, MM = Missing Value Source: NWS Daily Summary

Daily Weather History Graph

Daily Weather History Graph

Search for Another Location

Airport:

Trip Planner

Search our weather history database for the weather conditions in past years. The results will help you decide how hot, cold, wet, or windy it might be!

Date:

Astronomy

Dec. 30, 2012 Rise Set
Actual Time 8:16 AM EST 4:58 PM EST
Civil Twilight 7:42 AM EST 5:33 PM EST
Nautical Twilight 7:04 AM EST 6:11 PM EST
Astronomical Twilight 6:28 AM EST 6:47 PM EST
Moon 7:37 PM EST (12/30) 9:17 AM EST (12/30)
Length of Visible Light 9h 50m
Length of Day
8h 41m
Waning Gibbous, 95% of the Moon is Illuminated
Dec 30
Waning Gibbous
Jan 4
Last Quarter
Jan 11
New
Jan 18
First Quarter
Jan 26
Full

Hourly Weather History & Observations

Time (EST) Temp. Windchill Dew Point Humidity Pressure Visibility Wind Dir Wind Speed Gust Speed Precip Events Conditions
12:15 AM 15.6 °F - 11.3 °F 83% 29.98 in 10.0 mi Calm Calm - N/A   Clear
12:35 AM 14.2 °F - 10.6 °F 86% 29.98 in 10.0 mi Calm Calm - N/A   Clear
12:55 AM 12.6 °F - 10.2 °F 90% 29.98 in 10.0 mi Calm Calm - N/A   Clear
1:15 AM 10.9 °F - 9.1 °F 92% 29.99 in 10.0 mi Calm Calm - N/A   Clear
1:55 AM 8.2 °F - 6.4 °F 92% 30.00 in 10.0 mi Calm Calm - N/A   Clear
2:15 AM 8.4 °F - 7.0 °F 94% 30.00 in 10.0 mi Calm Calm - N/A   Clear
2:35 AM 7.0 °F - 5.4 °F 93% 30.01 in 10.0 mi Calm Calm - N/A   Scattered Clouds
2:55 AM 7.9 °F - 6.3 °F 93% 30.03 in 10.0 mi Calm Calm - N/A   Overcast
3:15 AM 9.3 °F - 7.5 °F 92% 30.04 in 10.0 mi Calm Calm - N/A   Overcast
3:35 AM 9.3 °F - 7.3 °F 92% 30.04 in 10.0 mi Calm Calm - N/A   Overcast
3:56 AM 9.3 °F - 7.5 °F 92% 30.05 in 10.0 mi Calm Calm - N/A   Overcast
4:15 AM 10.6 °F - 8.6 °F 92% 30.04 in 10.0 mi Calm Calm - N/A   Overcast
4:35 AM 11.8 °F - 10.0 °F 92% 30.05 in 10.0 mi Calm Calm - N/A   Overcast
4:56 AM 11.7 °F - 9.5 °F 91% 30.05 in 10.0 mi Calm Calm - N/A   Overcast
5:15 AM 9.1 °F - 7.0 °F 91% 30.05 in 10.0 mi Calm Calm - N/A   Overcast
5:35 AM 8.1 °F - 6.3 °F 92% 30.05 in 10.0 mi Calm Calm - N/A   Scattered Clouds
5:56 AM 8.4 °F - 6.8 °F 93% 30.06 in 10.0 mi Calm Calm - N/A   Scattered Clouds
6:15 AM 8.2 °F - 6.3 °F 92% 30.07 in 10.0 mi Calm Calm - N/A   Scattered Clouds
6:35 AM 6.8 °F - 5.0 °F 92% 30.07 in 10.0 mi Calm Calm - N/A   Scattered Clouds
7:15 AM 7.9 °F - 5.7 °F 91% 30.08 in 10.0 mi Calm Calm - N/A   Overcast
7:35 AM 9.1 °F - 7.3 °F 92% 30.09 in 10.0 mi Calm Calm - N/A   Overcast
7:55 AM 10.8 °F - 9.0 °F 92% 30.10 in 10.0 mi Calm Calm - N/A   Overcast
8:15 AM 11.5 °F - 9.5 °F 92% 30.10 in 10.0 mi Calm Calm - N/A Snow Light Snow
8:35 AM 12.6 °F - 10.4 °F 91% 30.11 in 10.0 mi Calm Calm - N/A Snow Light Snow
8:55 AM 13.5 °F - 11.7 °F 93% 30.11 in 4.0 mi Calm Calm - N/A Snow Light Snow
9:15 AM 14.7 °F - 12.9 °F 93% 30.11 in 2.0 mi Calm Calm - N/A Snow Light Snow
9:35 AM 15.6 °F - 14.0 °F 93% 30.10 in 5.0 mi Calm Calm - N/A Snow Light Snow
9:55 AM 16.7 °F - 14.9 °F 93% 30.11 in 4.0 mi Calm Calm - N/A Snow Light Snow
10:16 AM 19.0 °F - 17.4 °F 93% 30.12 in 2.0 mi Calm Calm - N/A Snow Light Snow
10:35 AM 20.1 °F - 19.0 °F 96% 30.13 in 1.2 mi Calm Calm - N/A Snow Light Snow
10:55 AM 22.1 °F - 20.3 °F 93% 30.13 in 7.0 mi Calm Calm - N/A Snow Light Snow
11:16 AM 24.3 °F - 19.8 °F 83% 30.13 in 10.0 mi Calm Calm - N/A   Overcast
11:35 AM 24.4 °F 17.5 °F 18.5 °F 78% 30.12 in 10.0 mi West 5.8 mph - N/A   Overcast
11:55 AM 24.8 °F 17.9 °F 17.8 °F 75% 30.12 in 10.0 mi West 5.8 mph - N/A   Overcast
12:15 PM 25.0 °F 19.3 °F 16.9 °F 71% 30.11 in 10.0 mi West 4.6 mph - N/A   Overcast
12:35 PM 25.3 °F 19.7 °F 17.6 °F 72% 30.09 in 10.0 mi WSW 4.6 mph - N/A   Overcast
12:55 PM 26.2 °F 22.1 °F 18.3 °F 72% 30.09 in 10.0 mi WSW 3.5 mph - N/A   Mostly Cloudy
1:15 PM 27.3 °F 23.4 °F 19.4 °F 72% 30.08 in 10.0 mi WSW 3.5 mph - N/A   Scattered Clouds
1:35 PM 28.0 °F 20.0 °F 20.1 °F 72% 30.08 in 10.0 mi WSW 8.1 mph - N/A   Clear
1:55 PM 28.6 °F 19.9 °F 20.3 °F 71% 30.08 in 10.0 mi WSW 9.2 mph 20.7 mph N/A   Clear
2:15 PM 29.1 °F 23.0 °F 20.8 °F 71% 30.08 in 10.0 mi WSW 5.8 mph - N/A   Scattered Clouds
2:36 PM 28.8 °F 21.7 °F 20.8 °F 72% 30.08 in 10.0 mi WSW 6.9 mph - N/A   Scattered Clouds
2:55 PM 28.2 °F 21.0 °F 20.3 °F 72% 30.08 in 10.0 mi WSW 6.9 mph - N/A   Mostly Cloudy
3:15 PM 27.5 °F 21.1 °F 20.7 °F 75% 30.08 in 10.0 mi WSW 5.8 mph - N/A   Mostly Cloudy
3:36 PM 27.9 °F 21.5 °F 20.3 °F 73% 30.08 in 10.0 mi West 5.8 mph - N/A   Mostly Cloudy
3:55 PM 27.9 °F 22.6 °F 20.7 °F 74% 30.08 in 10.0 mi West 4.6 mph - N/A   Overcast
4:15 PM 27.5 °F 22.2 °F 20.7 °F 75% 30.08 in 10.0 mi WSW 4.6 mph - N/A   Overcast
4:35 PM 27.5 °F 21.1 °F 21.0 °F 77% 30.08 in 10.0 mi WSW 5.8 mph - N/A   Overcast
4:55 PM 27.5 °F 23.6 °F 21.2 °F 77% 30.07 in 10.0 mi WSW 3.5 mph - N/A   Overcast
5:15 PM 27.3 °F - 21.6 °F 79% 30.06 in 10.0 mi Calm Calm - N/A   Overcast
5:40 PM 27.5 °F 22.2 °F 22.8 °F 83% 30.06 in 10.0 mi SW 4.6 mph - N/A   Overcast
6:00 PM 28.0 °F 20.0 °F 22.5 °F 80% 30.06 in 10.0 mi WSW 8.1 mph - N/A   Overcast
6:35 PM 27.7 °F 18.2 °F 22.6 °F 81% 30.06 in 10.0 mi SSW 10.4 mph - N/A   Overcast
6:55 PM 27.5 °F 18.0 °F 23.0 °F 83% 30.05 in 10.0 mi SSW 10.4 mph - N/A   Overcast
7:16 PM 27.5 °F 18.6 °F 23.0 °F 83% 30.05 in 10.0 mi SSW 9.2 mph - N/A   Overcast
7:35 PM 27.5 °F 18.6 °F 22.5 °F 81% 30.04 in 10.0 mi SSW 9.2 mph 17.3 mph N/A   Overcast
7:55 PM 27.5 °F 19.3 °F 22.5 °F 81% 30.05 in 10.0 mi SW 8.1 mph - N/A   Overcast
8:15 PM 27.3 °F 19.9 °F 22.3 °F 81% 30.04 in 10.0 mi SW 6.9 mph - N/A   Overcast
8:35 PM 27.1 °F 18.2 °F 22.6 °F 83% 30.04 in 10.0 mi SSW 9.2 mph - N/A   Overcast
8:55 PM 26.8 °F 17.7 °F 22.3 °F 83% 30.04 in 10.0 mi SSW 9.2 mph 16.1 mph N/A   Overcast
9:15 PM 26.4 °F 16.0 °F 21.9 °F 83% 30.03 in 10.0 mi SSW 11.5 mph 17.3 mph N/A   Overcast
9:35 PM 26.2 °F 15.2 °F 21.6 °F 82% 30.03 in 10.0 mi SSW 12.7 mph 19.6 mph N/A   Overcast
9:56 PM 25.7 °F 14.0 °F 21.2 °F 83% 30.02 in 10.0 mi SSW 13.8 mph 19.6 mph N/A   Overcast
10:15 PM 25.7 °F 15.1 °F 21.2 °F 83% 30.01 in 10.0 mi SSW 11.5 mph - N/A   Overcast
10:56 PM 26.4 °F 16.6 °F 22.6 °F 86% 29.99 in 10.0 mi SSW 10.4 mph - N/A   Overcast
11:15 PM 26.4 °F 16.0 °F 23.0 °F 87% 29.98 in 10.0 mi SSW 11.5 mph - N/A   Overcast
11:35 PM 26.6 °F 19.1 °F 23.5 °F 88% 29.97 in 10.0 mi SSW 6.9 mph - N/A   Overcast
11:56 PM 27.0 °F 20.5 °F 24.1 °F 89% 29.96 in 10.0 mi South 5.8 mph - N/A   Overcast